Portada
METAR-TAF:

METAR-TAF

Aeroports :

Fort Richardson, Alaska, Estats Units d'Amèrica

latitud: 61-15-45N, longitud: 149-39-17W, altitud: 115 m

Observació

L'informe es va fer fa 1 hora i 11 minuts, a les 10:58 UTC
Vent 3 kt del Nord/Nord-Est
Temperatura -18°C
Humitat 84%
Pressió 1005 hPa
Visibilitat: 16.1 km
Cel clar

METAR: PAFR 281058Z AUTO 03003KT 10SM CLR M18/M20 A2969 RMK AO2 SLP067 T11811199 $

Hora: 03:09 (12:09 UTC)


TAF: manca

Observacions i pronòstics meteorològics de més de 4000 aeroports (METAR i TAF).

Les estacions disponibles són els punts grocs i vermells al mapa.

Posi el ratolí al punt desitjat per veure el nom de l'estació.

Feu clic per veure les observacions i els pronòstics meteorològics.

Per canviar el mapa: feu clic els botons verds amb una creu de color negre per apropar; al botó verd amb un guió per allunyar la imatge; o en les fletxes verdes per a mapes adjacents.


METAR-TAF: